This is the latest recevied weather packets stored in our database for station/object W9WRP. If no packets are shown the sender has not sent any weather packets the latest 10 day(s).
| Time | Temp. | Humidity | Pressure | Rain* | Wind** | Luminosity | Snow |
|---|---|---|---|---|---|---|---|
| 1787710692 | 40.56° C | 17% | 1012 hPa | 0 mm | - | 0 W/m² | - |
| 1787710387 | 40.56° C | 17% | 1011.8 hPa | 0 mm | - | 1 W/m² | - |
| 1787710083 | 41.11° C | 16% | 1011.9 hPa | 0 mm | - | 2 W/m² | - |
| 1787709778 | 41.11° C | 16% | 1012 hPa | 0 mm | - | 3 W/m² | - |
| 1787709474 | 41.11° C | 16% | 1011.9 hPa | 0 mm | - | 4 W/m² | - |
| 1787709170 | 41.11° C | 16% | 1011.7 hPa | 0 mm | - | 6 W/m² | - |
| 1787708866 | 41.67° C | 16% | 1011.8 hPa | 0 mm | - | 9 W/m² | - |
| 1787708565 | 41.67° C | 16% | 1011.8 hPa | 0 mm | - | 13 W/m² | - |
| 1787708261 | 41.67° C | 16% | 1011.9 hPa | 0 mm | - | 15 W/m² | - |
| 1787707956 | 42.22° C | 16% | 1012 hPa | 0 mm | - | 18 W/m² | - |
| 1787707651 | 42.22° C | 15% | 1011.9 hPa | 0 mm | - | 21 W/m² | - |
| 1787707347 | 42.78° C | 15% | 1011.8 hPa | 0 mm | - | 25 W/m² | - |
| 1787707042 | 42.78° C | 15% | 1012.1 hPa | 0 mm | - | 27 W/m² | - |
| 1787706741 | 43.33° C | 15% | 1012 hPa | 0 mm | - | 37 W/m² | - |
| 1787706437 | 43.89° C | 14% | 1012 hPa | 0 mm | - | 44 W/m² | - |
| 1787706133 | 43.89° C | 14% | 1011.8 hPa | 0 mm | - | 62 W/m² | - |
| 1787705828 | 43.89° C | 14% | 1012 hPa | 0 mm | - | 64 W/m² | - |
| 1787705523 | 44.44° C | 14% | 1011.9 hPa | 0 mm | - | 83 W/m² | - |
| 1787705219 | 44.44° C | 13% | 1011.9 hPa | 0 mm | - | 72 W/m² | - |
| 1787704914 | 44.44° C | 13% | 1011.9 hPa | 0 mm | - | 68 W/m² | - |
| 1787704610 | 44.44° C | 13% | 1012.2 hPa | 0 mm | - | 114 W/m² | - |
| 1787704305 | 44.44° C | 13% | 1011.8 hPa | 0 mm | - | 127 W/m² | - |
| 1787704004 | 44.44° C | 14% | 1012 hPa | 0 mm | - | 136 W/m² | - |
| 1787703699 | 44.44° C | 14% | 1011.9 hPa | 0 mm | - | 140 W/m² | - |
| 1787703395 | 43.33° C | 14% | 1012 hPa | 0 mm | - | 163 W/m² | - |
* Rain latest hour (hover to see other rain measurements)
** Current wind speed in m/s (hover to see current wind gust speed)